Weather History for New Orleans Lakefront, LA

Change the Weather History Date:

Sunday, February 24, 2013

  Actual Average Record
Temperature  
Mean Temperature 57 °F 59 °F  
Max Temperature 63 °F 67 °F 83 °F (2011)
Min Temperature 51 °F 50 °F 28 °F (1989)
Degree Days  
Heating Degree Days 8 7  
Month to date heating degree days 171 225  
Since 1 July heating degree days 856 1081  
Cooling Degree Days 0 1  
Month to date cooling degree days 7 24  
Year to date cooling degree days 32 40  
Growing Degree Days 10 (Base 50)    
Moisture  
Dew Point 55 °F    
Average Humidity 81    
Maximum Humidity 90    
Minimum Humidity 72    
Precipitation  
Precipitation 0.81 in 0.18 in 3.15 in (1985)
Month to date precipitation 5.31 4.64  
Year to date precipitation 11.90 9.79  
Snow  
Snow 0.00 in - - ()
Month to date snowfall 0.0  
Since 1 July snowfall 0.0  
Snow Depth 0.00 in    
Sea Level Pressure  
Sea Level Pressure 29.87 in    
Wind  
Wind Speed 9 mph (ENE)    
Max Wind Speed 21 mph    
Max Gust Speed 25 mph    
Visibility 8 miles    
Events Rain    
T = Trace of Precipitation, MM = Missing Value Source: NWS Daily Summary

Daily Weather History Graph

Daily Weather History Graph

Search for Another Location

Airport:

Trip Planner

Search our weather history database for the weather conditions in past years. The results will help you decide how hot, cold, wet, or windy it might be!

Date:

Astronomy

Feb. 24, 2013 Rise Set
Actual Time 6:31 AM CST 5:55 PM CST
Civil Twilight 6:06 AM CST 6:20 PM CST
Nautical Twilight 5:39 AM CST 6:47 PM CST
Astronomical Twilight 5:11 AM CST 7:15 PM CST
Moon 5:06 PM CST (2/24) 5:26 AM CST (2/24)
Length of Visible Light 12h 13m
Length of Day
11h 24m
Waxing Gibbous, 99% of the Moon is Illuminated
Feb 24
Waxing Gibbous
Feb 25
Full
Mar 4
Last Quarter
Mar 11
New
Mar 19
First Quarter

Hourly Weather History & Observations

Time (CST) Temp. Dew Point Humidity Pressure Visibility Wind Dir Wind Speed Gust Speed Precip Events Conditions
12:53 AM 61.0 °F 51.1 °F 70% 29.94 in 10.0 mi NE 13.8 mph - N/A   Clear
1:53 AM 60.1 °F 50.0 °F 69% 29.94 in 10.0 mi ENE 12.7 mph - N/A   Clear
2:53 AM 59.0 °F 48.0 °F 67% 29.93 in 10.0 mi NE 16.1 mph - N/A   Clear
3:53 AM 57.9 °F 46.9 °F 67% 29.92 in 10.0 mi ENE 15.0 mph - N/A   Clear
4:53 AM 55.9 °F 46.9 °F 72% 29.93 in 10.0 mi ENE 16.1 mph - N/A   Clear
5:53 AM 55.9 °F 48.0 °F 75% 29.93 in 10.0 mi ENE 15.0 mph - N/A   Clear
6:53 AM 55.0 °F 48.0 °F 77% 29.94 in 10.0 mi ENE 15.0 mph - N/A   Clear
7:53 AM 55.9 °F 50.0 °F 80% 29.94 in 10.0 mi East 13.8 mph - N/A   Clear
8:53 AM 59.0 °F 50.0 °F 72% 29.96 in 10.0 mi East 10.4 mph - N/A   Clear
9:53 AM 62.1 °F 52.0 °F 70% 29.96 in 10.0 mi East 11.5 mph - N/A   Clear
10:53 AM 64.0 °F 53.1 °F 67% 29.96 in 10.0 mi East 12.7 mph - N/A   Mostly Cloudy
11:42 AM 62.6 °F 53.6 °F 72% 29.97 in 10.0 mi East 10.4 mph - N/A   Mostly Cloudy
11:53 AM 63.0 °F 53.1 °F 70% 29.95 in 10.0 mi East 10.4 mph - N/A   Overcast
12:53 PM 63.0 °F 54.0 °F 72% 29.93 in 8.0 mi East 9.2 mph - N/A   Overcast
1:53 PM 63.0 °F 55.0 °F 75% 29.90 in 7.0 mi East 11.5 mph - N/A   Overcast
2:53 PM 64.0 °F 55.9 °F 75% 29.88 in 7.0 mi East 9.2 mph - N/A   Overcast
3:53 PM 64.0 °F 55.9 °F 75% 29.86 in 10.0 mi East 12.7 mph - N/A   Overcast
4:53 PM 64.0 °F 55.9 °F 75% 29.85 in 10.0 mi East 13.8 mph - N/A   Overcast
5:00 PM 62.6 °F 55.4 °F 77% 29.86 in 10.0 mi East 16.1 mph - N/A   Overcast
5:53 PM 64.0 °F 55.9 °F 75% 29.85 in 10.0 mi East 11.5 mph - N/A   Overcast
6:09 PM 64.4 °F 55.4 °F 73% 29.86 in 10.0 mi East 11.5 mph - 0.00 in Rain Light Rain
6:35 PM 62.6 °F 57.2 °F 82% 29.84 in 10.0 mi East 15.0 mph - 0.00 in   Overcast
6:53 PM 63.0 °F 57.0 °F 81% 29.79 in 8.0 mi East 18.4 mph - 0.01 in Rain Light Rain
7:32 PM 62.6 °F 57.2 °F 82% 29.85 in 6.0 mi East 12.7 mph - 0.06 in Rain Light Rain
7:46 PM 62.6 °F 57.2 °F 82% 29.84 in 8.0 mi ENE 11.5 mph - 0.07 in Rain Light Rain
7:53 PM 63.0 °F 57.9 °F 84% 29.82 in 9.0 mi ENE 10.4 mph - 0.07 in Rain Light Rain
8:36 PM 62.6 °F 57.2 °F 82% 29.84 in 1.8 mi East 13.8 mph - 0.19 in Rain Heavy Rain
8:41 PM 62.6 °F 57.2 °F 82% 29.82 in 2.0 mi East 17.3 mph - 0.22 in Rain Heavy Rain
8:53 PM 62.1 °F 57.0 °F 84% 29.78 in 3.0 mi NE 20.7 mph - 0.28 in Rain Light Rain
9:22 PM 62.6 °F 57.2 °F 82% 29.86 in 3.0 mi ENE 10.4 mph - 0.09 in Rain Rain
9:29 PM 64.4 °F 57.2 °F 77% 29.86 in 1.8 mi East 12.7 mph - 0.28 in Rain Heavy Rain
9:38 PM 62.6 °F 57.2 °F 82% 29.82 in 0.8 mi East 20.7 mph 26.5 mph 0.71 in Rain Heavy Rain
9:48 PM 62.6 °F 57.2 °F 82% 29.81 in 2.0 mi ENE 19.6 mph - 0.74 in Rain Rain
9:51 PM 62.6 °F 57.2 °F 82% 29.81 in 3.0 mi East 20.7 mph - 0.74 in Rain Light Rain
9:53 PM 62.1 °F 57.9 °F 86% 29.79 in 4.0 mi ENE 21.9 mph - 0.75 in Rain Light Rain
10:04 PM 62.6 °F 57.2 °F 82% 29.81 in 9.0 mi East 15.0 mph - 0.00 in   Overcast
10:22 PM 62.6 °F 57.2 °F 82% 29.82 in 9.0 mi North 16.1 mph - 0.00 in   Overcast
10:30 PM 60.8 °F 57.2 °F 88% 29.81 in 8.0 mi NNE 16.1 mph - 0.00 in   Overcast
10:53 PM 62.1 °F 57.9 °F 86% 29.78 in 7.0 mi East 17.3 mph - 0.00 in   Overcast
11:53 PM 63.0 °F 59.0 °F 87% 29.73 in 8.0 mi East 16.1 mph - N/A   Overcast